User: anonymous   Login
Location: Newark
(39.6172°N, 96.8533°W)
Time: 16:55:02
(UTC+00:00)
Language:

Explorer 7 - Orbit

View from above orbital plane
View from above orbital plane
View from above satellite
View from above satellite

Ground track
Ground track

The orbit data is extracted from the following two-line orbital elements,

1    22U 59009A   20052.13438392  .00000134  00000-0  33223-4 0  9994
2    22  50.2839 292.4947 0139709 170.5011 189.8628 14.95042350207772
Epoch (UTC): 21 February 2020 03:13:30
Eccentricity: 0.0139709
inclination: 50.2839°
perigee height: 485 km
apogee height: 679 km
right ascension of ascending node: 292.4947°
argument of perigee: 170.5011°
revolutions per day: 14.95042350
mean anomaly at epoch: 189.8628°
orbit number at epoch: 20777

The dashed part of the orbit path shows where the satellite is in the earth's shadow,  

DLR